Terminal Aerodrome Forecast
Issued by NWS Cleveland, OH

Home | Current Version | Previous Version | Text Only | Print | Product List | Glossary Off
Versions: 1 2 3 4 5 6 7 8 9 10 11 12 13 14 15 16 17 18 19 20 21 22 23 24 25 26

000
FTUS41 KCLE 290303 AAB
TAFCLE
TAF AMD
KCLE 290303Z 2903/3006 VRB04KT P6SM BKN200
     FM290900 03006KT 6SM BR FEW200
      TEMPO 2910/2912 4SM BR
     FM291400 03010KT P6SM FEW040=

USA.gov is the U.S. government's official web portal to all federal, state and local government web resources and services.